CPA146 YSSY-VHHH

Flight info

Callsign CPA146
Flight time N/A
Altitude 32000
Route RIC6/34L RIC H530 BAZZA/N0494F340 H530 SURVO R340 AMN/N0497F360 A461 ZAM A583 SABNO V542 BETTY
Aircraft B77W/H-SDE1E2E3FGHIJ2J3J4J5M1RWXY/LB1D1

Departure

Time 2026-05-06 11:58
Airport Sydney Kingsford Smith International Airport (YSSY)

Arrival

Time N/A
Airport Hong Kong International Airport (VHHH)
Time Latitude Longitude Altitude Speed Heading
2026-05-06 11:47 -33.93776 151.17051 22 ft 0 kts 167°
2026-05-06 11:50 -33.93783 151.17053 28 ft 4 kts 167°
2026-05-06 11:50 -33.93854 151.17073 36 ft 17 kts 167°
2026-05-06 11:50 -33.93961 151.17111 28 ft 14 kts 145°
2026-05-06 11:50 -33.93999 151.17221 29 ft 15 kts 137°
2026-05-06 11:51 -33.94116 151.17263 27 ft 20 kts 166°
2026-05-06 11:51 -33.94273 151.17304 28 ft 26 kts 168°
2026-05-06 11:51 -33.94463 151.17352 31 ft 30 kts 168°
2026-05-06 11:51 -33.94672 151.17406 31 ft 32 kts 168°
2026-05-06 11:52 -33.94889 151.17463 27 ft 32 kts 168°
2026-05-06 11:52 -33.95105 151.17518 27 ft 31 kts 168°
2026-05-06 11:52 -33.95315 151.17573 25 ft 30 kts 168°
2026-05-06 11:52 -33.95508 151.17623 30 ft 26 kts 168°
2026-05-06 11:53 -33.95681 151.17668 29 ft 25 kts 167°
2026-05-06 11:53 -33.95852 151.17712 27 ft 25 kts 167°
2026-05-06 11:53 -33.96021 151.17758 29 ft 25 kts 167°
2026-05-06 11:53 -33.96192 151.17802 28 ft 25 kts 168°
2026-05-06 11:54 -33.96343 151.17840 28 ft 16 kts 168°
2026-05-06 11:54 -33.96426 151.17883 29 ft 10 kts 128°
2026-05-06 11:54 -33.96433 151.17903 29 ft 0 kts 104°
2026-05-06 11:55 -33.96433 151.17904 29 ft 0 kts 103°
2026-05-06 11:55 -33.96435 151.17932 28 ft 7 kts 90°
2026-05-06 11:56 -33.96421 151.18016 29 ft 12 kts 60°
2026-05-06 11:56 -33.96334 151.18038 29 ft 0 kts 349°
2026-05-06 11:57 -33.96333 151.18037 29 ft 2 kts 348°
2026-05-06 11:58 -33.96252 151.18017 27 ft 32 kts 348°
2026-05-06 11:58 -33.95705 151.17874 26 ft 128 kts 347°
2026-05-06 11:58 -33.94528 151.17568 145 ft 205 kts 347°
2026-05-06 11:58 -33.93019 151.17178 981 ft 227 kts 347°
2026-05-06 11:59 -33.91599 151.16759 2455 ft 199 kts 336°
2026-05-06 11:59 -33.90489 151.15714 2771 ft 213 kts 311°
2026-05-06 11:59 -33.89460 151.14300 2988 ft 235 kts 313°
2026-05-06 11:59 -33.88318 151.12816 3474 ft 246 kts 313°
2026-05-06 12:00 -33.87150 151.11324 4172 ft 250 kts 313°
2026-05-06 12:00 -33.85944 151.09802 4943 ft 252 kts 313°
2026-05-06 12:00 -33.84722 151.08274 5684 ft 254 kts 313°
2026-05-06 12:00 -33.83485 151.06735 6429 ft 257 kts 313°
2026-05-06 12:01 -33.82228 151.05179 7111 ft 260 kts 313°
2026-05-06 12:01 -33.80961 151.03617 7754 ft 263 kts 313°
2026-05-06 12:01 -33.79669 151.02029 8406 ft 267 kts 313°
2026-05-06 12:01 -33.78361 151.00423 9080 ft 270 kts 313°
2026-05-06 12:02 -33.77034 150.98796 9754 ft 274 kts 313°
2026-05-06 12:02 -33.75708 150.97173 10303 ft 280 kts 313°
2026-05-06 12:02 -33.74294 150.95440 10518 ft 301 kts 313°
2026-05-06 12:02 -33.72768 150.93574 10707 ft 323 kts 313°
2026-05-06 12:03 -33.71135 150.91576 10882 ft 346 kts 313°
2026-05-06 12:03 -33.69416 150.89479 11331 ft 358 kts 313°
2026-05-06 12:03 -33.67642 150.87317 11993 ft 365 kts 313°
2026-05-06 12:03 -33.65850 150.85136 12815 ft 368 kts 313°
2026-05-06 12:04 -33.64046 150.82939 13676 ft 371 kts 313°
2026-05-06 12:04 -33.62223 150.80718 14437 ft 375 kts 313°
2026-05-06 12:04 -33.60382 150.78479 15173 ft 378 kts 313°
2026-05-06 12:04 -33.58535 150.76259 15903 ft 382 kts 314°
2026-05-06 12:05 -33.56614 150.74022 16633 ft 386 kts 315°
2026-05-06 12:05 -33.54666 150.71778 17338 ft 391 kts 315°
2026-05-06 12:05 -33.52690 150.69504 18036 ft 395 kts 315°
2026-05-06 12:05 -33.50706 150.67216 18684 ft 399 kts 315°
2026-05-06 12:06 -33.48699 150.64898 19366 ft 401 kts 315°
2026-05-06 12:06 -33.46685 150.62569 20064 ft 402 kts 314°
2026-05-06 12:06 -33.44669 150.60237 20730 ft 405 kts 314°
2026-05-06 12:06 -33.42630 150.57880 21383 ft 407 kts 314°
2026-05-06 12:07 -33.40609 150.55547 22016 ft 410 kts 314°
2026-05-06 12:07 -33.38549 150.53171 22604 ft 414 kts 314°
2026-05-06 12:07 -33.36466 150.50772 23236 ft 416 kts 314°
2026-05-06 12:07 -33.34373 150.48360 23840 ft 418 kts 314°
2026-05-06 12:08 -33.32265 150.45935 24367 ft 420 kts 314°
2026-05-06 12:08 -33.30158 150.43511 24870 ft 422 kts 314°
2026-05-06 12:08 -33.28040 150.41076 25383 ft 424 kts 314°
2026-05-06 12:08 -33.26627 150.39453 25722 ft 425 kts 314°
2026-05-06 12:09 -33.24495 150.37005 26221 ft 426 kts 314°
2026-05-06 12:09 -33.22349 150.34544 26722 ft 428 kts 314°
2026-05-06 12:09 -33.19469 150.31241 27322 ft 430 kts 314°
2026-05-06 12:09 -33.18039 150.29601 27681 ft 430 kts 313°
2026-05-06 12:10 -33.15134 150.26278 28252 ft 433 kts 314°
2026-05-06 12:10 -33.13694 150.24633 28501 ft 435 kts 314°
2026-05-06 12:10 -33.10787 150.21311 29044 ft 437 kts 313°
2026-05-06 12:10 -33.09298 150.19607 29303 ft 438 kts 313°
2026-05-06 12:11 -33.07116 150.17112 29668 ft 440 kts 313°
2026-05-06 12:11 -33.04901 150.14584 30030 ft 441 kts 313°
2026-05-06 12:11 -33.02684 150.12057 30342 ft 442 kts 313°
2026-05-06 12:11 -33.00462 150.09527 30668 ft 442 kts 313°
2026-05-06 12:12 -32.98248 150.07007 31056 ft 440 kts 313°
2026-05-06 12:12 -32.96039 150.04494 31479 ft 437 kts 313°
2026-05-06 12:12 -32.93847 150.02003 31896 ft 434 kts 313°
2026-05-06 12:12 -32.91656 149.99514 32065 ft 437 kts 313°
2026-05-06 12:13 -32.87242 149.94508 32099 ft 437 kts 313°
2026-05-06 12:13 -32.82875 149.89564 32132 ft 431 kts 313°
2026-05-06 12:14 -32.78192 149.85138 32151 ft 434 kts 320°
2026-05-06 12:14 -32.73265 149.80969 32156 ft 434 kts 320°
2026-05-06 12:15 -32.68365 149.76771 32170 ft 434 kts 320°
2026-05-06 12:15 -32.63450 149.72553 32147 ft 436 kts 320°
2026-05-06 12:16 -32.58542 149.68340 32158 ft 436 kts 320°
2026-05-06 12:16 -32.53620 149.64130 32147 ft 436 kts 320°
2026-05-06 12:17 -32.48717 149.59943 32173 ft 437 kts 320°
2026-05-06 12:17 -32.43792 149.55743 32149 ft 437 kts 320°
2026-05-06 12:18 -32.38863 149.51544 32154 ft 437 kts 320°
2026-05-06 12:18 -32.33926 149.47345 32160 ft 436 kts 320°
2026-05-06 12:19 -32.29001 149.43160 32158 ft 436 kts 320°
2026-05-06 12:19 -32.24077 149.38984 32138 ft 436 kts 320°
2026-05-06 12:20 -32.19158 149.34816 32166 ft 436 kts 320°
2026-05-06 12:20 -32.14247 149.30661 32166 ft 437 kts 320°
2026-05-06 12:21 -32.09297 149.26478 32177 ft 438 kts 320°
2026-05-06 12:21 -32.04336 149.22293 32166 ft 438 kts 320°
2026-05-06 12:22 -31.99374 149.18112 32172 ft 438 kts 320°
2026-05-06 12:22 -31.94405 149.13931 32163 ft 438 kts 320°
2026-05-06 12:23 -31.89468 149.09783 32172 ft 438 kts 320°
2026-05-06 12:23 -31.84505 149.05618 32168 ft 438 kts 320°
2026-05-06 12:24 -31.79547 149.01463 32176 ft 438 kts 320°
2026-05-06 12:24 -31.74583 148.97308 32180 ft 437 kts 320°
2026-05-06 12:25 -31.69630 148.93169 32184 ft 437 kts 320°
2026-05-06 12:25 -31.64671 148.89030 32166 ft 437 kts 321°
2026-05-06 12:26 -31.59705 148.84890 32173 ft 438 kts 321°
2026-05-06 12:26 -31.54730 148.80748 32182 ft 439 kts 321°
2026-05-06 12:27 -31.49763 148.76619 32183 ft 440 kts 321°
2026-05-06 12:27 -31.44765 148.72470 32183 ft 441 kts 321°